FENGYUN 1C DEB

Satellite information

Favourite Embed

Satellite Type and Status

DEBRISDECAYED

Key statistics

Satellite FENGYUN 1C DEB at a glance.

Uptime

9423

Days in orbit

Revolutions

≈ 15.3

Per day

Orbit

SSO

Sun Synchronous Orbit

Inclination

99.6

Latest

Satellite identification and parameters

Extended collection of information and parameters for FENGYUN 1C DEB.

Object identification

Identified? True

Debris? True

Object name: FENGYUN 1C DEB

International designator: 1999-025TV

Object number (NORAD): 30164

Object ID (CCSDS): 30164

Country: PEOPLES REPUBLIC OF CHINA (PRC)

Current information (Y/N): Y

RCS size: SMALL

Orbital parameters

Decay date: Feb. 25, 2025

Period: 94.103 minutes

Inclination: 99.5639 deg

SMA: 6853.229 km

Apoapsis: 507.013 km

Periapsis: 443.176 km

RAAN: 308.9512 deg

Eccentricy: 0.0046575

Argument of periapsis: 170.1509 deg

Mean anomaly: 190.0648 deg

Mean motion: 15.30241056 rev/day

Mean motion (dot): 0.02063034 rev/day2

B* drag term: 0.061984 1/REarth

Two-line elements (TLE)

Creation date: Feb. 14, 2025, 5:53 p.m.

Reference frame: TEME

Reference center: EARTH

Epoch: Feb. 14, 2025, 4:30 a.m. UTC

TLE line 0: 0 FENGYUN 1C DEB

TLE line 1: 1 30164U 99025TV 25045.18815853 .02063034 00000-0 61984-1 0 9991

TLE line 2: 2 30164 99.5639 308.9512 0046575 170.1509 190.0648 15.30241056896744

Live tracking on map

Satellite FENGYUN 1C DEB has decayed and is no longer in orbit. No tracking available.

In-orbit conjunctions

Satellite FENGYUN 1C DEB has decayed and is no longer in orbit. No conjunctions available.

Associated space launch

Chinese polar orbiting meteorological satellite

FENGYUN 1C DEB was lifted into orbit during the mission ‘Long March 4B | Feng Yun 1C’, on board a Long March 4B space rocket.

The launch took place on May 10, 1999, 1:33 a.m. from Launch Complex 7.

For more information about the launch, click the button.

Launch to space Long March 4B | Feng Yun 1C
Long March 4B | Feng Yun 1C

Agency: N/A

Status: Launch Successful

Launch date: May 10, 1999, 1:33 a.m. UTC

Rocket: Long March 4B

Launch pad: Launch Complex 7

Location: Taiyuan Satellite Launch Center, People's Republic of China

...

Latest news about this satellite

There are no fresh news available about this satellite. Check back as we update our databases every day.


Newsletter sign-up

Weekly statistics, charts and insights to help you stay on top of the space industry.